Location: Unspecified
(0.0000°N, 0.0000°E)
Time: 06:33:39
(UTC+00:00)

Vanguard 1 Rocket - Pass Details

Date: 24 November 2019
Orbit: 650 x 4226 km, 34.3° (Epoch: 10 December)

Event Time Altitude Azimuth Distance (km) Brightness Sun altitude
Rises 15:25:41 0° 238° (WSW) 7,573 13.2 32.7°
Reaches altitude 10° 15:33:10 10° 223° (SW) 7,017 13.1 31.0°
Maximum altitude 15:50:39 22° 179° (S) 6,425 12.2 27.0°
Drops below altitude 10° 16:07:48 10° 135° (SE) 6,888 11.7 23.0°
Sets 16:15:00 0° 120° (ESE) 7,411 11.7 21.4°
